IW1QLH-11 Weather Reports


time (UTC)temp
C
wind
direction
speed
KPH
gust
KPH
rain 1hr
cm
rain 24hr
cm
rain mn
cm
humidity
%
barometer
mb
20260507003001 -17 0.0 0.0 0.00 0.00 0.00 1002.7
20260507001502 -17 0.0 0.0 0.00 0.00 0.00 1002.6
20260507000002 -17 0.0 1.6 0.00 0.00 0.00 1002.5
20260506234502 -17 0.0 0.0 0.00 0.00 0.00 1002.7
20260506233002 -17 0.0 0.0 0.00 0.00 0.00 1002.8
20260506231502 -17 0.0 0.0 0.00 0.00 0.00 1002.8
20260506230003 -17 0.0 1.6 0.00 0.00 0.00 1003.0
20260506224501 -17 0.0 0.0 0.00 0.00 0.00 1002.9
20260506223002 -17 0.0 1.6 0.00 0.00 0.00 1002.8
20260506221502 -17 0.0 0.0 0.00 0.00 0.00 1002.8
20260506214502 -17 0.0 3.2 0.00 0.00 0.00 1002.6
20260506213002 -17 1.6 4.8 0.00 0.00 0.00 1002.7
20260506211501 -17 0.0 1.6 0.00 0.00 0.00 1002.7
20260506210001 -17 0.0 1.6 0.00 0.00 0.00 1002.7
20260506204501 -17 1.6 6.4 0.00 0.00 0.00 1002.6
20260506203001 -17 3.2 12.9 0.00 0.00 0.00 1002.4
20260506201502 -17 6.4 17.7 0.00 0.00 0.00 1002.4
20260506200002 -17 4.8 14.5 0.00 0.00 0.00 1002.2
20260506194501 -17 3.2 19.3 0.00 0.00 0.00 1002.1
20260506193002 -17 6.4 11.3 0.00 0.00 0.00 1001.9
20260506191501 -17 3.2 11.3 0.00 0.00 0.00 1001.4
20260506190003 -17 4.8 16.1 0.00 0.00 0.00 1001.2
20260506184501 -17 4.8 12.9 0.00 0.00 0.00 1000.9
20260506183001 -17 8.0 12.9 0.00 0.00 0.00 1000.9
20260506181501 -17 6.4 14.5 0.00 0.00 0.00 1000.9
20260506180002 -17 6.4 16.1 0.00 0.00 0.00 1000.9
20260506174502 -17 8.0 12.9 0.00 0.00 0.00 1000.8
20260506173003 -17 8.0 16.1 0.00 0.00 0.00 1000.7
20260506171501 -17 9.7 17.7 0.00 0.00 0.00 1000.7
20260506170001 -17 9.7 17.7 0.00 0.00 0.00 1000.8
20260506164502 -17 11.3 16.1 0.00 0.00 0.00 1000.8
20260506163003 -17 9.7 17.7 0.00 0.00 0.00 1000.9
20260506161501 -17 12.9 20.9 0.00 0.00 0.00 1000.8
20260506160002 -17 9.7 27.4 0.00 0.00 0.00 1000.8
20260506154502 -17 12.9 22.5 0.00 0.00 0.00 1000.7
20260506153002 -17 14.5 25.7 0.00 0.00 0.00 1000.8
20260506151502 -17 11.3 20.9 0.00 0.00 0.00 1000.7
20260506150002 -17 11.3 27.4 0.00 0.00 0.00 1000.8
20260506144501 -17 11.3 25.7 0.00 0.00 0.00 1000.9
20260506143002 -17 8.0 20.9 0.00 0.00 0.00 1001.1
20260506141502 -17 16.1 22.5 0.00 0.00 0.00 1001.0
20260506140002 -17 9.7 20.9 0.00 0.00 0.00 1001.2
20260506134501 -17 9.7 22.5 0.00 0.00 0.00 1001.0
20260506133002 -17 14.5 20.9 0.00 0.00 0.00 1001.3
20260506131502 -17 9.7 25.7 0.00 0.00 0.00 1001.4
20260506130001 -17 11.3 25.7 0.00 0.00 0.00 1001.5
20260506124501 -17 11.3 33.8 0.00 0.00 0.00 1001.5
20260506123002 -17 14.5 25.7 0.00 0.00 0.00 1001.6
20260506121502 -17 12.9 22.5 0.00 0.00 0.00 1001.4
20260506120002 -17 12.9 20.9 0.00 0.00 0.00 1001.5
20260506114502 -17 14.5 22.5 0.00 0.00 0.00 1001.6
20260506113001 -17 11.3 25.7 0.00 0.00 0.00 1001.5
20260506111501 -17 14.5 25.7 0.00 0.00 0.00 1001.6
20260506110001 -17 19.3 29.0 0.00 0.00 0.00 1001.6
20260506104502 -17 11.3 25.7 0.00 0.00 0.00 1001.6
20260506103002 -17 9.7 22.5 0.00 0.00 0.00 1001.3
20260506101501 -17 12.9 22.5 0.00 0.00 0.00 1001.3
20260506100001 -17 11.3 19.3 0.00 0.00 0.00 1001.4
20260506094501 -17 12.9 17.7 0.00 0.00 0.00 1001.3
20260506093002 -17 8.0 16.1 0.00 0.00 0.00 1001.3
20260506091502 -17 8.0 14.5 0.00 0.00 0.00 1001.2
20260506090002 -17 4.8 12.9 0.00 0.00 0.00 1001.1
20260506084501 -17 6.4 16.1 0.00 0.00 0.00 1001.0
20260506083002 -17 4.8 16.1 0.00 0.00 0.00 1001.0
20260506081501 -17 6.4 14.5 0.00 0.00 0.00 1000.9
20260506073002 -17 4.8 8.0 0.00 0.00 0.00 1000.8
20260506071501 -17 8.0 12.9 0.00 0.00 0.00 1000.7
20260506061502 -17 0.0 0.0 0.00 0.00 0.00 1000.3
20260506044501 -17 0.0 3.2 0.00 0.00 0.00 1000.2
20260506043002 -17 0.0 1.6 0.00 0.00 0.00 1000.5
20260506041502 -17 1.6 3.2 0.00 0.00 0.00 1000.6
20260506040002 -17 0.0 3.2 0.00 0.00 0.00 1000.5
20260506034502 -17 0.0 0.0 0.00 0.00 0.00 1000.4
20260506033001 -17 0.0 0.0 0.00 0.00 0.00 1000.3
20260506031501 -17 0.0 0.0 0.00 0.00 0.00 1000.5
20260506030001 -17 0.0 0.0 0.00 0.00 0.00 1000.6
20260506024502 -17 0.0 0.0 0.00 0.00 0.00 1001.0
20260506023002 -17 0.0 0.0 0.00 0.00 0.00 1001.0
20260506021501 -17 0.0 0.0 0.00 0.00 0.00 1001.1
20260506020001 -17 0.0 1.6 0.00 0.00 0.00 1001.2
20260506014501 -17 0.0 0.0 0.00 0.00 0.00 1001.2
20260506013001 -17 0.0 0.0 0.00 0.00 0.00 1001.4
20260506011502 -17 0.0 4.8 0.00 0.00 0.00 1001.5
20260506010002 -17 0.0 6.4 0.00 0.00 0.00 1001.4
20260506004501 -17 1.6 4.8 0.00 0.00 0.00 1001.7